STARLINK-36306, 68160

Orbit data source: Space-Track

STARLINK-36306, 68160 is a payload satellite owned by SpaceX/Seattle (US) in SSO that was launched on Fri, 13 Mar 2026 UTC via an FALCON 9 launch vehicle from the Air Force Western Test Range (AFWTR). Payload-class satellites include a variety of spacecraft equipped with specific instruments for various scientific and technological missions. These include communications satellites like Starlink; space stations such as the ISS; scientific satellites like the Hubble; Earth observation satellites from companies like Planet Labs, Umbra, and HawkEye 360; GPS; miniature CubeSats for education and research; and military/defense satellites.

Loading next visibility...
Identifier
68160, 2026-049U
Orbit
SSO
Country
Flag of USUS
Related business
Manufacturer
SpaceX/Seattle
Mission
Operational spacecraft
Bus & Motor
STARLINK V2MO, Unknown motor
Mass
575 kg wet, ~530 kg dry
Launch date (UTC)
2026-03-13 (3 months ago)
Launch vehicle
FALCON 9
Launch site
Air Force Western Test Range (AFWTR)
Object type
Payload
Rocket body
Debris
Shape & HBR
Unknown shape, 17.7 m
Radar Cross Section
Large (>1 m²)

Expand to show TLE details & history
Last TLE update: 20 hours ago

TLE from 20 hours ago
0 STARLINK-36306
1 68160U 26049U   26170.99594101  .00015900  00000-0  49336-3 0  9999
2 68160  97.2839 192.2507 0001198 100.3286 259.8092 15.33473020 15320
Epoch: 2026-06-19T23:54Z
TLE epoch observation values (Epoch: 2026-06-19T23:54:09.303Z)
Latitude
0.00001°
Longitude
-74.50497°
Altitude
468.717 km
Speed
7.632 km/s
True Right ascension
12h 49m 00s
True Declination
0° 00' 00"
Sunlit
Object was in daylight at epoch
Visualization orbit readout
Latitude
Unknown
Longitude
Unknown
Altitude
Unknown
Speed
Unknown
Apparent Right ascension
Unknown
Apparent Declination
Unknown
Sunlit
N/A
Visualization observer readout
Local Sidereal Time
07:15:25
Azimuth
Unknown
Elevation
Unknown
Doppler factor
Unknown
Orbital elements
Apogee altitude
463.222 km
Perigee altitude
461.583 km
Semi-major axis
6,840.539 km
Eccentricity
0.00012
Inclination
97.2839°
RAAN
192.2507°
Arg. of periapsis
100.3286°
True anomaly
259.79569°
Mean anomaly
259.8092°
Eccentric anomaly
259.80244°
Mean motion
3.83626 °/min
Orbital period
93.84 mins
BSTAR
0.00049336
Loading maneuver chart data...
Computing Atmospheric mass density...
Loading historical data...
Loading historical data...
Loading historical data...
Loading historical data...
Loading historical data...
Loading historical data...
Loading historical data...

Documentation

Showing up to 5 results
|